Muncie, IN

10:33 PM EST on February 22, 2018 (GMT -0500)
Delaware County-Johnson

Weather History for KMIE - March, 2013

Change the Weather History Date:

Wednesday, March 13, 2013

  Actual Average Record
Temperature  
Mean Temperature 30 °F 38 °F  
Max Temperature 33 °F 48 °F 75 °F (2007)
Min Temperature 26 °F 29 °F 0 °F (1968)
Degree Days  
Heating Degree Days 35 27  
Month to date heating degree days 384 375  
Since 1 July heating degree days 4398 4758  
Cooling Degree Days 0 0  
Month to date cooling degree days 0 0  
Year to date cooling degree days 0 0  
Moisture  
Dew Point 21 °F    
Average Humidity 70    
Maximum Humidity 81    
Minimum Humidity 58    
Precipitation  
Precipitation T in 0.09 in 0.92 in (2003)
Month to date precipitation 0.57 1.13  
Year to date precipitation 6.24 5.67  
Sea Level Pressure  
Sea Level Pressure 30.11 in    
Wind  
Wind Speed 13 mph (WNW)    
Max Wind Speed 25 mph    
Max Gust Speed 31 mph    
Visibility 6 miles    
Events Snow    
T = Trace of Precipitation, MM = Missing Value Source: NWS Daily Summary

Daily Weather History Graph

Daily Weather History Graph

Search for Another Location

Airport or City:

Trip Planner

Search our weather history database for the weather conditions in past years. The results will help you decide how hot, cold, wet, or windy it might be!

Date:

Astronomy

Mar. 13, 2013 Rise Set
Actual Time 7:55 AM EDT 7:46 PM EDT
Civil Twilight 7:28 AM EDT 8:13 PM EDT
Nautical Twilight 6:57 AM EDT 8:45 PM EDT
Astronomical Twilight 6:25 AM EDT 9:17 PM EDT
Moon 8:34 AM EDT (3/13) 10:02 PM EDT (3/13)
Length of Visible Light 12h 44m
Length of Day
11h 50m
Waxing Crescent, 4% of the Moon is Illuminated
Mar 13
Waxing Crescent
Mar 19
First Quarter
Mar 27
Full
Apr 3
Last Quarter
Apr 10
New

Hourly Weather History & Observations

Time (EDT) Temp. Windchill Dew Point Humidity Pressure Visibility Wind Dir Wind Speed Gust Speed Precip Events Conditions
12:53 AM 33.1 °F 23.4 °F 28.0 °F 82% 30.01 in 5.0 mi West 13.8 mph 18.4 mph 0.00 in Snow Light Snow
1:42 AM 32.0 °F 21.6 °F 26.6 °F 80% 29.99 in 10.0 mi West 15.0 mph - 0.00 in   Overcast
1:53 AM 32.0 °F 23.6 °F 25.0 °F 75% 30.01 in 10.0 mi West 10.4 mph - 0.00 in   Overcast
2:51 AM 30.2 °F 22.6 °F 26.6 °F 86% 29.99 in 4.0 mi West 8.1 mph - 0.00 in Snow Light Snow
3:01 AM 30.2 °F 18.5 °F 24.8 °F 80% 30.00 in 1.8 mi WNW 17.3 mph 23.0 mph 0.00 in Snow Light Snow
3:12 AM 30.2 °F 19.3 °F 23.0 °F 75% 30.00 in 2.0 mi WNW 15.0 mph 23.0 mph 0.00 in Snow Light Snow
3:25 AM 30.2 °F 19.8 °F 21.2 °F 69% 29.99 in 5.0 mi WNW 13.8 mph 19.6 mph 0.00 in Snow Light Snow
3:32 AM 30.2 °F 19.8 °F 21.2 °F 69% 29.99 in 6.0 mi WNW 13.8 mph 20.7 mph 0.00 in Snow Light Snow
3:53 AM 30.0 °F 19.5 °F 19.9 °F 66% 30.01 in 10.0 mi WNW 13.8 mph - 0.00 in   Overcast
4:31 AM 28.4 °F 17.5 °F 21.2 °F 74% 29.99 in 2.5 mi WNW 13.8 mph - 0.00 in Snow Light Snow
4:41 AM 28.4 °F 17.5 °F 21.2 °F 74% 30.00 in 3.0 mi West 13.8 mph - 0.00 in Snow Light Snow
4:53 AM 28.0 °F 17.5 °F 21.9 °F 78% 30.01 in 4.0 mi West 12.7 mph - 0.00 in Snow Light Snow
5:06 AM 28.4 °F 18.5 °F 21.2 °F 74% 30.00 in 7.0 mi West 11.5 mph 20.7 mph 0.00 in Snow Light Snow
5:53 AM 28.0 °F 18.1 °F 21.0 °F 75% 30.03 in 9.0 mi West 11.5 mph - 0.00 in   Overcast
6:32 AM 26.6 °F 13.8 °F 19.4 °F 74% 30.03 in 1.8 mi WNW 17.3 mph 27.6 mph 0.00 in Snow Light Snow
6:41 AM 26.6 °F 15.7 °F 21.2 °F 80% 30.03 in 1.0 mi WNW 12.7 mph 23.0 mph 0.00 in Snow Light Snow
6:53 AM 27.0 °F 17.3 °F 21.0 °F 78% 30.05 in 2.5 mi West 10.4 mph - 0.00 in Snow Light Snow
7:01 AM 26.6 °F 13.8 °F 21.2 °F 80% 30.04 in 3.0 mi West 17.3 mph 21.9 mph 0.00 in Snow Light Snow
7:08 AM 26.6 °F 15.2 °F 21.2 °F 80% 30.04 in 1.8 mi West 13.8 mph 21.9 mph 0.00 in Snow Light Snow
7:18 AM 26.6 °F 15.7 °F 21.2 °F 80% 30.04 in 0.8 mi West 12.7 mph - 0.00 in Snow Light Snow
7:23 AM 26.6 °F 15.2 °F 21.2 °F 80% 30.04 in 2.0 mi WNW 13.8 mph - 0.00 in Snow Light Snow
7:32 AM 26.6 °F 17.5 °F 21.2 °F 80% 30.05 in 3.0 mi West 9.2 mph - 0.00 in Snow Light Snow
7:53 AM 27.0 °F 14.7 °F 21.9 °F 81% 30.06 in 8.0 mi WNW 16.1 mph - 0.00 in   Overcast
8:17 AM 26.6 °F 16.8 °F 21.2 °F 80% 30.06 in 1.8 mi WNW 10.4 mph - 0.00 in Snow Light Snow
8:25 AM 26.6 °F 16.2 °F 21.2 °F 80% 30.06 in 2.0 mi West 11.5 mph - 0.00 in Snow Light Snow
8:32 AM 26.6 °F 16.2 °F 21.2 °F 80% 30.06 in 3.0 mi West 11.5 mph - 0.00 in Snow Light Snow
8:53 AM 27.0 °F 16.1 °F 21.9 °F 81% 30.09 in 7.0 mi WNW 12.7 mph 20.7 mph 0.00 in   Overcast
9:35 AM 26.6 °F 15.7 °F 21.2 °F 80% 30.09 in 2.5 mi West 12.7 mph - 0.00 in Snow Light Snow
9:44 AM 26.6 °F 14.7 °F 21.2 °F 80% 30.09 in 1.8 mi West 15.0 mph - 0.00 in Snow Light Snow
9:53 AM 27.0 °F 15.6 °F 21.9 °F 81% 30.12 in 1.5 mi WNW 13.8 mph - 0.00 in Snow Light Snow
10:02 AM 26.6 °F 14.3 °F 21.2 °F 80% 30.10 in 2.0 mi WNW 16.1 mph - 0.00 in Snow Light Snow
10:13 AM 28.4 °F 17.0 °F 21.2 °F 74% 30.10 in 6.0 mi WNW 15.0 mph - 0.00 in   Haze
10:25 AM 28.4 °F 17.0 °F 21.2 °F 74% 30.11 in 1.8 mi WNW 15.0 mph - 0.00 in Snow Light Snow
10:35 AM 28.4 °F 16.2 °F 19.4 °F 69% 30.11 in 3.0 mi WNW 17.3 mph 25.3 mph 0.00 in Snow Light Snow
10:42 AM 28.4 °F 17.0 °F 19.4 °F 69% 30.11 in 8.0 mi WNW 15.0 mph 25.3 mph 0.00 in   Overcast
10:53 AM 28.9 °F 18.6 °F 21.0 °F 72% 30.14 in 6.0 mi WNW 12.7 mph - 0.00 in Snow Light Snow
11:05 AM 28.4 °F 16.2 °F 19.4 °F 69% 30.13 in 2.5 mi NW 17.3 mph 23.0 mph 0.00 in Snow Light Snow
11:12 AM 28.4 °F 16.6 °F 19.4 °F 69% 30.13 in 7.0 mi WNW 16.1 mph - 0.00 in   Overcast
11:21 AM 28.4 °F 17.5 °F 19.4 °F 69% 30.13 in 10.0 mi WNW 13.8 mph - 0.00 in   Overcast
11:53 AM 28.9 °F 16.1 °F 18.0 °F 64% 30.17 in 8.0 mi NW 19.6 mph 27.6 mph 0.00 in Snow Light Snow
12:09 PM 28.4 °F 17.0 °F 17.6 °F 64% 30.15 in 2.5 mi NW 15.0 mph 25.3 mph 0.00 in Snow Light Snow
12:17 PM 28.4 °F 15.4 °F 19.4 °F 69% 30.15 in 4.0 mi NW 19.6 mph 23.0 mph 0.00 in Snow Light Snow
12:25 PM 28.4 °F 15.1 °F 19.4 °F 69% 30.15 in 1.8 mi NW 20.7 mph - 0.00 in Snow Light Snow
12:35 PM 28.4 °F 15.8 °F 19.4 °F 69% 30.16 in 3.0 mi NW 18.4 mph 24.2 mph 0.00 in Snow Light Snow
12:42 PM 30.2 °F 18.9 °F 19.4 °F 64% 30.15 in 9.0 mi WNW 16.1 mph 24.2 mph 0.00 in   Scattered Clouds
12:53 PM 30.9 °F 17.2 °F 17.1 °F 57% 30.18 in 10.0 mi NW 25.3 mph 31.1 mph 0.00 in   Partly Cloudy
1:53 PM 30.0 °F 19.1 °F 17.1 °F 59% 30.21 in 10.0 mi WNW 15.0 mph 26.5 mph N/A   Overcast
2:53 PM 30.0 °F 18.3 °F 18.0 °F 61% 30.22 in 10.0 mi WNW 17.3 mph 25.3 mph N/A   Overcast
3:53 PM 30.0 °F 18.3 °F 18.0 °F 61% 30.22 in 10.0 mi WNW 17.3 mph 23.0 mph N/A   Overcast
4:53 PM 30.9 °F 19.8 °F 18.0 °F 59% 30.24 in 10.0 mi WNW 16.1 mph - N/A   Overcast
5:53 PM 30.0 °F 19.1 °F 18.0 °F 61% 30.26 in 10.0 mi WNW 15.0 mph 24.2 mph N/A   Overcast
6:53 PM 30.9 °F 20.2 °F 18.0 °F 59% 30.27 in 10.0 mi WNW 15.0 mph 20.7 mph N/A   Overcast
7:53 PM 30.9 °F 22.2 °F 18.0 °F 59% 30.28 in 10.0 mi WNW 10.4 mph - N/A   Mostly Cloudy
8:53 PM 30.0 °F 21.7 °F 18.0 °F 61% 30.29 in 10.0 mi West 9.2 mph - N/A   Clear
9:53 PM 28.9 °F 22.8 °F 19.0 °F 67% 30.30 in 10.0 mi WNW 5.8 mph - N/A   Clear
10:53 PM 28.0 °F 24.2 °F 19.0 °F 69% 30.31 in 10.0 mi West 3.5 mph - N/A   Clear
11:53 PM 27.0 °F 23.0 °F 19.9 °F 75% 30.32 in 10.0 mi WNW 3.5 mph - N/A   Clear